Regional Weather Roundup
Issued by NWS

Home | Current Version | Previous Version | Graphics & Text | Print | Product List | Glossary Off
Versions: 1 2 3 4 5 6 7 8 9 10 11 12 13 14 15 16 17 18 19 20 21 22 23 24 25 26 27 28 29 30 31 32 33 34 35 36 37 38 39 40 41 42 43 44 45 46 47 48 49 50

000
ASUS43 KMPX 250401
RWRMN
WEATHER ROUNDUP FOR MINNESOTA
NATIONAL WEATHER SERVICE TWIN CITIES/CHANHASSEN MN
1000 PM CST FRI NOV 24 2017


NOTE: "FAIR" INDICATES FEW OR NO CLOUDS BELOW 12,000 FEET WITH NO
SIGNIFICANT WEATHER AND/OR OBSTRUCTIONS TO VISIBILITY. N/A MEANS
CURRENT SKY AND/OR WEATHER CONDITIONS ARE NOT AVAILABLE.

MNZ060>063-068>070-250500-
   Twin Cities Metro

CITY           SKY/WX    TMP DP  RH WIND       PRES   REMARKS
TWIN CITIES    CLEAR     43  35  73 W13       29.73R
ST PAUL        CLEAR     41  34  76 NW10      29.73R
CRYSTAL        CLEAR     42  31  64 W8        29.72R
BLAINE         CLEAR     43  34  70 W10       29.71R
LAKEVILLE      CLEAR     39  34  81 W10       29.74R
EDEN PRAIRIE   CLEAR     43  33  68 W10       29.74R
SOUTH ST PAUL  CLEAR     44  33  64 NW9G16    29.72R
LAKE ELMO      FAIR      41  34  75 NW7       29.72R
$$
MNZ001>005-007-008-013>017-022>024-027-028-250500-
   Northwest Minnesota

CITY           SKY/WX    TMP DP  RH WIND       PRES   REMARKS
BEMIDJI        CLOUDY    35  29  79 NW20G25   29.69R WCI  24
HALLOCK        CLOUDY    28  23  80 N14       29.79R WCI  17
ROSEAU         CLOUDY    28  19  69 NW17G25   29.72R WCI  16
WARROAD        CLOUDY    27  19  74 NW18G31   29.71R WCI  13
CROOKSTON      PTCLDY    32  30  93 N13       29.78R WCI  22
FOSSTON        CLOUDY    34  28  80 NW15G21   29.74R WCI  24
DETROIT LAKES  CLEAR     36  32  87 NW15      29.76R
MOORHEAD       PTCLDY    37  30  75 NW15      29.80R
PARK RAPIDS    MOCLDY    37  31  78 NW18      29.70R
MAHNOMEN       FAIR      34  30  84 NW13      29.74R WCI  25
$$
MNZ006-009>011-018-025>026-250500-
   North Central Minnesota

CITY           SKY/WX    TMP DP  RH WIND       PRES   REMARKS
BAUDETTE       CLOUDY    29  21  72 NW21G29   29.66R WCI  16
FLAG ISLAND    CLOUDY    23  16  74 NW26      29.70R WCI   6
INTL FALLS     CLOUDY    31  20  63 NW25G33   29.60R WCI  17
WASKISH        CLOUDY    34  28  80 NW17G23   29.67R WCI  23
BIG FORK       CLOUDY    37  30  75 W9G18     29.60R
LONGVILLE      CLOUDY    37  28  70 W12G18    29.67R
GRAND RAPIDS   CLOUDY    37  30  75 NW20G25   29.63R
CRANE LAKE     CLOUDY    32  30  93 NW5       29.57R WCI  27
ORR            CLOUDY    36  27  69 NW17G30   29.54R
COOK           CLOUDY    36  30  80 W13G18    29.55R
WALKER         MOCLDY    35  29  77 W13G21    29.67R WCI  26
$$
MNZ012-019>021-037-250500-
   Northeast Minnesota

CITY           SKY/WX    TMP DP  RH WIND       PRES   REMARKS
DULUTH         CLOUDY    37  33  85 W15       29.57R
ELY            CLOUDY    36  27  69 W12       29.51R
HIBBING        CLOUDY    36  30  79 W10G22    29.57R
EVELETH        CLOUDY    37  28  69 W9        29.57R
DULUTH HARBOR  CLOUDY    41  36  81 W13       29.60S
TWO HARBORS    CLOUDY    41  34  75 W7        29.54R
SILVER BAY     CLOUDY    39  30  70 W5        29.52R
GRAND MARAIS     N/A     40  28  62 W7        29.49R
G MARAIS ARPRT CLOUDY    34  21  60 W10G21    29.45R WCI  26
$$
MNZ029>031-032-039>041-046>048-054>057-064-250500-
   West Central Minnesota

CITY           SKY/WX    TMP DP  RH WIND       PRES   REMARKS
FERGUS FALLS   CLEAR     36  30  80 NW12      29.81R
WHEATON        PTCLDY    39  32  75 W10       29.82R
MORRIS         CLEAR     39  34  81 MISG      29.79R
ALEXANDRIA     CLEAR     39  33  79 NW14      29.77R
ELBOW LAKE     FAIR      35  32  88 NW10      29.78R WCI  27
WADENA         CLEAR     37  32  81 NW15      29.73R
GLENWOOD       CLEAR     37  34  87 W13       29.77R
APPLETON       CLEAR     37  32  81 W8        29.81R
BENSON         CLEAR     36  30  80 NW9       29.81R
ORTONVILLE     PTCLDY    43  32  65 NW12      29.82R
MADISON        CLEAR     45  36  70 W13       29.82R
WILLMAR        FAIR      37  34  87 W13       29.79R
$$
MNZ033>034-036-042>043-049>051-058-059-250500-
   Central Minnesota

CITY           SKY/WX    TMP DP  RH WIND       PRES   REMARKS
ST CLOUD       CLEAR     40  33  76 W13       29.72R
SAUK CENTRE    FAIR      38  33  81 W13       29.75R
PAYNESVILLE    CLEAR     39  34  83 W14       29.76R
AITKIN         MOCLDY    36  30  80 W6        29.65R
PINE RIVER     MOCLDY    37  30  75 NW8G16    29.72R
BRAINERD       PTCLDY    39  32  76 W12       29.69R
STAPLES        CLEAR     36  30  80 NW12G18   29.71R
LONG PRAIRIE   FAIR      37  32  81 W12       29.74R
LITTLE FALLS   CLEAR     37  28  70 W8        29.72R
LITCHFIELD     CLEAR     41  36  81 W10       29.76R
BUFFALO        CLEAR     41  32  69 W10       29.74R
MAPLE LAKE     CLEAR     42  34  75 W9        29.74R
HUTCHINSON     CLEAR     37  33  84 W10       29.78R
$$
MNZ037-044-045-052-053-250500-
   East Central Minnesota

CITY           SKY/WX    TMP DP  RH WIND       PRES   REMARKS
PRINCETON      CLEAR     37  32  81 W6        29.71R
MORA           CLEAR     36  32  87 W7        29.69R
CAMBRIDGE      CLEAR     41  30  65 W8        29.70R
RUSH CITY      CLEAR     35  31  85 W3        29.69R
MOOSE LAKE     PTCLDY    36  32  87 W5        29.62R
HINCKLEY       FAIR      36  32  87 W7        29.66R
CLOQUET        CLOUDY    37  30  75 W13       29.60R
MCGREGOR       CLEAR     37  32  81 NW13G22   29.64R
$$
MNZ071>073-080-081-089-090-097-098-250500-
   Southwest Minnesota

CITY           SKY/WX    TMP DP  RH WIND       PRES   REMARKS
MONTEVIDEO     CLEAR     39  34  81 N10       29.81R
GRANITE FALLS  CLEAR     38  33  81 W10       29.83R
CANBY          PTCLDY    46  34  63 NW16G22   29.85R
MARSHALL       PTCLDY    42  33  70 NW15      29.84R
REDWOOD FALLS  MOCLDY    42  33  70 W13       29.81R
OLIVIA         CLEAR     41  34  75 W13       29.79R
PIPESTONE      PTCLDY    39  32  75 N10G16    29.85R
WINDOM         PTCLDY    37  25  60 W10       29.84R
WORTHINGTON    CLEAR     39  32  76 W13       29.86R
JACKSON        PTCLDY    41  32  70 NW13      29.84R
SLAYTON        CLOUDY    40  33  76 NW13      29.85R
$$
MNZ065>067-074>077-082>085-091>093-250500-
   South Central Minnesota

CITY           SKY/WX    TMP DP  RH WIND       PRES   REMARKS
MANKATO        CLEAR     42  33  70 NW12      29.79R
NEW ULM        CLEAR     37  30  75 CALM      29.81R
ST JAMES       CLEAR     39  34  81 W9        29.83R
FAIRMONT       PTCLDY    43  34  70 NW15      29.82R
GLENCOE        CLEAR     39  34  81 W8        29.77R
FARIBAULT      CLEAR     43  34  70 W12       29.77R
OWATONNA       CLEAR     41  34  75 W10       29.77R
WASECA         CLEAR     39  32  75 NW10      29.79R
ALBERT LEA     CLEAR     41  34  75 W8        29.78R
$$
MNZ078>079-086>088-094>096-250500-
   Southeast Minnesota

CITY           SKY/WX    TMP DP  RH WIND       PRES   REMARKS
ROCHESTER      CLEAR     40  36  86 NW16      29.73R
RED WING       CLEAR     45  32  61 NW9G16    29.72R
STANTON        CLEAR     42  35  75 NW10      29.74R
DODGE CENTER   CLEAR     41  34  75 NW14G20   29.74R
WINONA         CLEAR     43  36  75 NW12      29.70R
AUSTIN         CLEAR     41  36  81 NW14      29.75R
PRESTON        CLEAR     41  35  79 NW18      29.73R
$$
ABBREVIATIONS USED IN REMARKS
   TC - TEMPERATURES IN CELSIUS
  WCI - WIND CHILL INDEX
   HX - HEAT INDEX
  VSB - VISIBILITY
$$




USA.gov is the U.S. government's official web portal to all federal, state and local government web resources and services.